Wind_Speed
19 19 20 20 20 20 21 22 22 23 25 26 26 27 27 27 28 28 28 28 27 27 26 26 26 25 24 24 23 22 21 21 20 18 18 18 18 18 19 19 18 18 17 17
19 19 20 20 19 20 21 22 23 24 25 26 26 26 26 26 27 27 27 27 26 25 25 25 25 24 23 23 22 22 20 19 19 18 17 17 18 18 18 18 17 16 16 16
19 20 20 20 20 20 21 22 23 24 24 25 25 25 25 26 27 27 26 26 25 24 25 25 24 23 23 23 22 21 19 19 18 17 17 17 17 17 17 16 16 15 14 15
21 21 20 21 21 21 21 22 23 24 24 25 25 25 25 26 27 26 26 25 24 24 25 25 24 24 23 22 21 20 18 17 16 16 15 15 15 15 15 15 14 13 13 13
21 21 21 22 22 23 23 23 24 24 24 25 25 25 25 25 26 25 25 25 24 24 24 24 24 23 22 21 20 19 18 17 15 15 14 14 14 14 13 13 13 12 12 11
21 21 22 23 23 23 25 25 25 25 25 25 25 25 24 25 24 24 24 24 24 24 24 23 22 21 20 20 18 18 16 15 14 14 15 14 14 13 13 12 12 11 11 11
22 22 24 25 25 25 25 25 26 26 26 26 26 25 25 24 24 24 24 24 24 23 22 22 21 20 19 19 17 16 16 15 14 14 14 14 14 13 12 12 11 10 10 10
23 23 25 26 26 25 26 27 27 27 27 27 26 26 25 24 24 24 24 24 24 22 22 21 21 20 19 17 16 15 15 14 14 13 13 13 13 12 12 11 9 9 9 10
24 25 26 27 27 28 28 28 27 27 27 28 27 26 26 25 25 25 24 24 23 22 21 21 20 19 18 17 16 14 14 14 13 13 12 12 12 11 10 8 8 8 9 10
25 26 27 27 28 28 28 28 28 28 28 28 28 27 26 25 24 24 24 24 23 22 20 20 19 18 17 16 14 14 13 13 13 13 12 11 11 10 9 8 8 8 9 10
26 27 28 28 28 28 28 28 28 29 29 28 28 27 26 25 24 24 23 23 22 21 20 19 18 17 16 15 14 13 13 12 12 12 11 10 10 9 9 8 8 9 10 11
28 28 29 29 28 29 29 29 28 28 28 28 28 27 26 25 24 23 22 21 20 20 19 19 18 17 15 14 12 12 11 11 11 10 9 9 9 9 9 10 10 10 10 10
30 30 30 30 30 30 29 29 29 29 28 27 27 26 25 24 23 22 22 20 20 19 19 18 17 15 14 12 12 12 12 11 10 9 8 9 9 10 9 10 11 11 11 10
31 31 31 31 31 30 30 29 29 29 28 27 27 26 25 23 22 22 21 20 19 18 17 17 15 14 13 12 12 12 12 11 9 8 8 9 9 10 10 10 11 11 12 11
32 31 31 31 30 30 29 29 29 28 27 27 26 25 23 22 21 20 20 19 18 17 16 15 14 13 12 11 12 12 12 10 8 8 8 9 9 9 9 10 10 11 12 11
31 31 31 30 29 29 29 28 27 26 25 25 23 22 21 20 19 19 18 17 16 15 14 14 13 13 12 11 11 11 10 9 8 8 8 8 8 9 9 9 10 11 11 11
32 31 31 30 29 28 28 27 27 25 24 23 22 21 20 20 19 18 17 16 15 14 14 13 12 12 12 11 11 10 9 9 8 8 8 9 9 9 9 10 10 11 11 11
31 30 30 30 29 28 28 27 27 25 24 23 22 21 20 19 19 18 17 16 16 15 15 14 13 12 11 11 10 9 9 9 8 8 8 9 10 10 9 10 10 10 10 11
31 30 29 29 28 27 27 26 25 24 23 23 22 21 21 20 18 17 17 16 16 16 15 14 13 13 12 10 10 10 9 9 9 9 9 9 9 9 10 10 11 11 10 11
31 30 29 28 27 26 26 25 25 24 23 22 21 20 20 19 19 18 17 17 17 16 15 14 14 12 11 10 10 10 10 10 10 10 9 9 9 9 10 10 10 10 10 10
30 29 28 27 27 27 26 25 25 24 22 21 21 20 19 19 19 18 17 17 16 16 15 14 13 12 10 9 9 10 10 10 9 9 9 9 9 9 10 10 9 9 9 10
30 29 28 28 27 26 26 26 25 24 23 22 22 21 20 19 19 18 17 17 17 16 15 14 13 12 11 10 10 10 10 9 9 9 9 9 9 9 8 8 8 8 9 10
30 29 28 28 27 26 25 25 24 24 24 23 22 22 20 20 19 18 17 17 16 15 14 13 13 12 12 12 10 9 9 9 9 9 9 9 8 8 8 8 8 8 8 9
30 29 28 27 27 26 25 25 24 23 23 23 23 22 21 20 19 18 18 17 16 14 14 13 12 12 11 11 10 9 9 9 9 9 9 8 8 8 8 8 8 8 8 9
31 30 29 29 27 26 26 25 24 23 23 22 22 22 21 20 19 18 17 16 15 14 13 13 12 12 11 10 10 10 9 9 9 9 9 8 8 8 8 8 8 8 8 8
31 30 29 28 27 26 25 24 24 23 22 22 22 21 20 19 19 17 16 15 15 14 14 13 12 12 11 11 10 10 10 10 9 8 8 8 8 8 8 8 8 8 8 8
30 29 28 27 27 26 25 24 24 23 23 22 21 20 20 20 19 18 17 16 15 15 14 13 13 12 12 11 11 11 10 10 9 9 8 9 8 8 8 8 8 8 8 7
Wind_Direction
313 314 314 312 313 314 314 316 315 314 313 314 315 315 316 315 315 316 316 315 315 315 315 315 315 314 313 313 312 310 307 305 304 305 305 305 303 301 303 299 294 296 298 297
314 315 314 312 313 313 313 314 314 314 314 315 315 316 315 315 315 317 317 316 315 315 315 315 316 314 314 314 313 311 308 308 308 303 303 303 302 301 302 302 299 298 297 295
315 316 314 315 316 315 314 314 314 314 315 316 315 315 316 317 318 318 319 318 317 316 317 317 317 317 317 316 314 314 309 307 310 309 307 305 303 304 304 305 304 302 299 297
316 316 315 314 314 315 314 313 314 314 314 316 317 316 317 318 319 320 320 320 318 317 317 317 317 318 319 318 317 316 314 311 311 312 312 312 312 309 309 308 307 309 306 303
316 315 313 313 315 315 315 314 316 316 315 314 317 318 318 318 318 319 319 319 319 318 318 319 319 319 319 320 319 318 317 314 312 313 313 315 316 315 314 314 314 315 310 309
314 312 313 314 316 316 316 316 318 317 316 316 316 316 316 316 316 317 319 319 320 320 320 321 322 321 321 322 323 324 323 319 315 313 314 313 318 319 317 317 316 316 314 313
311 311 310 312 313 314 315 317 316 317 316 316 315 314 313 314 315 316 319 319 320 321 322 324 327 326 325 325 328 329 326 323 322 319 317 314 317 317 319 318 315 314 314 316
309 310 310 312 311 312 313 314 314 314 314 314 315 314 313 312 312 315 317 318 320 321 321 322 324 325 326 328 328 329 330 330 330 328 324 321 321 320 319 319 318 315 317 321
306 306 308 310 309 309 311 311 312 312 312 312 313 313 313 312 312 314 315 316 319 319 319 320 323 324 327 329 329 329 331 331 332 330 326 324 323 324 323 320 320 318 321 327
304 305 306 307 308 307 308 310 310 310 310 310 311 312 312 312 313 314 314 313 315 317 318 319 322 323 326 328 328 330 330 329 330 331 327 326 328 327 324 323 326 329 328 330
301 302 304 305 306 307 308 309 309 309 309 309 310 310 310 311 311 313 314 312 311 312 314 317 321 322 323 324 325 326 329 333 333 333 334 332 332 333 334 331 330 332 330 329
298 299 300 302 303 304 304 305 305 306 306 306 307 307 307 308 309 310 312 312 313 311 311 313 317 319 317 319 321 323 326 333 334 333 334 337 336 334 336 335 331 330 328 329
296 297 298 299 300 302 303 303 303 304 304 305 305 306 306 306 307 308 309 310 310 310 309 310 312 313 312 313 317 321 323 326 328 329 332 333 332 334 333 333 333 333 332 329
296 296 297 298 299 300 301 301 301 302 303 304 304 304 305 306 306 307 308 308 309 309 309 309 308 308 309 310 310 313 317 320 322 324 328 329 331 330 329 329 332 334 335 332
296 296 297 297 298 299 300 301 302 302 302 303 303 304 304 304 304 305 306 305 307 308 308 308 308 307 307 308 308 308 311 315 316 318 327 331 330 330 330 332 332 332 332 330
295 295 296 297 298 299 299 300 302 303 302 301 302 303 302 303 302 302 303 302 303 304 304 306 307 307 304 303 303 305 309 311 313 316 325 330 328 328 327 329 330 329 328 327
293 293 294 294 295 295 296 298 299 300 300 300 300 299 299 299 301 302 299 297 297 298 300 303 304 304 303 301 303 303 305 308 308 312 319 323 322 324 325 327 330 331 330 329
293 292 292 293 293 293 294 296 297 298 298 298 297 296 296 297 300 300 296 292 291 294 295 294 294 296 300 301 299 300 303 306 303 303 309 315 318 320 323 326 330 333 332 332
291 291 291 291 292 292 293 295 295 296 297 297 297 296 295 295 297 298 293 290 290 291 291 288 288 290 291 293 294 295 297 300 302 302 304 308 313 314 317 320 324 327 330 334
289 288 288 288 289 291 292 292 293 294 295 296 296 297 296 296 295 293 290 288 288 287 285 284 284 284 283 285 289 293 294 297 301 301 301 302 304 307 312 316 319 323 329 335
286 286 286 286 286 288 290 291 291 291 293 293 293 293 292 294 293 291 287 286 284 282 280 280 280 277 274 279 286 291 294 296 298 301 304 302 301 303 309 315 319 322 328 335
285 285 284 283 284 286 287 288 288 289 289 288 288 288 289 292 292 288 282 281 281 280 278 275 272 269 269 273 280 285 288 290 291 295 301 301 301 304 307 312 314 315 323 333
283 283 282 282 283 284 284 284 285 285 285 285 284 284 286 288 287 284 279 279 279 277 274 269 267 265 265 267 272 277 281 283 285 289 294 297 300 303 305 308 309 312 321 328
278 279 280 280 281 281 281 280 281 281 281 282 282 282 284 285 283 280 278 276 271 269 269 266 261 261 260 262 267 272 276 280 282 285 287 291 297 301 304 306 308 311 317 325
278 278 277 276 278 279 279 278 278 279 279 280 281 281 282 283 281 277 275 270 264 263 263 261 260 257 255 258 264 268 271 273 277 280 281 284 289 293 300 304 307 308 311 318
276 275 274 274 276 276 275 274 275 275 275 276 276 276 277 277 276 273 269 264 258 257 257 257 256 253 253 257 260 264 267 267 268 274 281 281 283 286 289 295 302 306 307 312
273 271 270 271 272 271 270 269 271 272 273 272 272 271 271 273 271 268 265 261 257 255 254 253 252 251 252 255 259 260 261 265 268 270 275 279 278 278 281 285 293 301 305 310
Height
5840 5837 5834 5831 5828 5825 5822 5819 5817 5813 5809 5805 5800 5796 5792 5788 5784 5779 5775 5771 5766 5762 5758 5754 5750 5745 5741 5737 5733 5729 5726 5724 5722 5720 5718 5716 5714 5713 5711 5708 5707 5706 5704 5702
5836 5833 5830 5827 5824 5821 5818 5814 5811 5808 5804 5799 5795 5791 5787 5783 5779 5774 5770 5765 5761 5757 5753 5748 5745 5741 5736 5733 5729 5725 5722 5720 5717 5715 5713 5712 5710 5708 5706 5704 5702 5700 5699 5697
5832 5829 5825 5823 5820 5817 5813 5810 5807 5803 5800 5795 5791 5786 5782 5778 5773 5769 5765 5760 5756 5752 5747 5743 5739 5735 5732 5727 5724 5720 5717 5715 5712 5710 5709 5707 5705 5703 5702 5699 5697 5696 5694 5693
5827 5825 5822 5821 5816 5812 5809 5805 5801 5798 5794 5790 5786 5782 5777 5772 5768 5764 5760 5755 5751 5747 5743 5739 5735 5731 5727 5723 5719 5716 5713 5710 5708 5706 5705 5703 5701 5699 5698 5695 5693 5692 5690 5688
5823 5820 5817 5815 5811 5807 5804 5800 5797 5793 5790 5786 5782 5778 5773 5768 5764 5759 5755 5751 5747 5742 5738 5734 5730 5726 5722 5718 5715 5711 5709 5707 5705 5703 5701 5700 5698 5696 5694 5692 5690 5688 5686 5685
5819 5815 5813 5811 5806 5802 5800 5795 5792 5788 5785 5781 5777 5773 5770 5764 5760 5755 5751 5746 5742 5738 5733 5729 5725 5721 5717 5714 5710 5708 5705 5703 5701 5699 5698 5696 5694 5692 5690 5688 5687 5685 5683 5682
5814 5811 5807 5805 5801 5798 5796 5792 5787 5783 5779 5776 5772 5768 5764 5759 5755 5751 5747 5742 5738 5734 5729 5725 5721 5717 5714 5711 5708 5705 5702 5700 5698 5696 5695 5693 5691 5689 5687 5685 5684 5682 5681 5679
5809 5806 5804 5798 5795 5793 5790 5785 5781 5778 5774 5770 5766 5762 5758 5754 5750 5746 5742 5738 5734 5730 5726 5722 5718 5715 5711 5708 5705 5703 5700 5698 5696 5694 5692 5690 5688 5686 5685 5683 5681 5680 5678 5677
5804 5802 5797 5793 5789 5786 5782 5779 5775 5772 5768 5764 5760 5757 5753 5749 5745 5742 5738 5734 5730 5726 5722 5718 5715 5712 5709 5706 5703 5700 5698 5696 5694 5692 5690 5688 5686 5684 5682 5681 5679 5678 5676 5675
5796 5793 5790 5786 5783 5779 5776 5772 5769 5765 5761 5758 5754 5751 5747 5744 5740 5737 5733 5729 5725 5722 5718 5715 5712 5709 5706 5703 5701 5698 5696 5694 5692 5690 5688 5686 5684 5683 5681 5679 5678 5676 5674 5673
5790 5787 5783 5780 5776 5772 5769 5765 5762 5758 5755 5751 5747 5744 5741 5738 5735 5731 5728 5724 5721 5718 5715 5712 5709 5706 5703 5701 5698 5696 5694 5692 5690 5688 5686 5685 5683 5681 5680 5678 5676 5674 5672 5670
5782 5779 5776 5773 5769 5765 5762 5759 5755 5752 5748 5745 5741 5738 5735 5732 5729 5726 5723 5720 5717 5714 5711 5709 5706 5703 5701 5699 5696 5694 5693 5691 5689 5687 5685 5683 5681 5679 5678 5676 5674 5672 5670 5668
5774 5771 5768 5764 5761 5758 5754 5751 5748 5744 5741 5737 5734 5731 5728 5726 5723 5720 5718 5715 5713 5710 5707 5705 5703 5700 5698 5696 5694 5693 5691 5689 5687 5685 5684 5682 5680 5678 5676 5674 5671 5669 5667 5665
5765 5762 5760 5756 5753 5750 5746 5743 5740 5737 5733 5730 5727 5724 5721 5719 5717 5715 5713 5710 5708 5706 5703 5701 5699 5697 5695 5694 5692 5690 5689 5688 5686 5684 5682 5680 5678 5676 5674 5672 5670 5667 5665 5663
5756 5753 5751 5748 5745 5742 5738 5735 5732 5729 5726 5723 5720 5718 5715 5713 5711 5709 5707 5705 5703 5701 5699 5698 5696 5694 5692 5691 5689 5688 5686 5685 5684 5682 5680 5679 5677 5675 5672 5670 5668 5666 5663 5661
5747 5745 5742 5739 5736 5733 5730 5728 5725 5722 5720 5717 5714 5712 5709 5708 5706 5704 5702 5701 5699 5698 5696 5694 5692 5691 5689 5688 5686 5685 5684 5683 5681 5680 5679 5677 5675 5673 5671 5668 5666 5664 5661 5659
5738 5736 5734 5731 5728 5726 5723 5720 5718 5715 5713 5710 5708 5706 5704 5702 5701 5699 5697 5696 5695 5693 5692 5690 5689 5687 5686 5685 5683 5682 5681 5680 5679 5678 5677 5675 5674 5672 5670 5667 5665 5662 5660 5657
5729 5727 5724 5722 5720 5718 5715 5713 5711 5708 5706 5704 5702 5700 5698 5697 5695 5694 5692 5691 5690 5689 5687 5686 5685 5684 5683 5681 5680 5679 5679 5678 5677 5676 5675 5673 5672 5670 5668 5665 5663 5660 5658 5655
5719 5717 5716 5713 5711 5709 5707 5705 5703 5701 5700 5698 5696 5694 5692 5691 5689 5688 5687 5686 5685 5684 5683 5682 5681 5680 5679 5678 5677 5676 5676 5675 5674 5673 5672 5671 5669 5667 5665 5663 5661 5658 5656 5653
5710 5708 5707 5705 5703 5702 5700 5698 5696 5694 5693 5691 5690 5688 5686 5685 5684 5682 5681 5680 5679 5678 5678 5676 5676 5675 5675 5674 5674 5673 5672 5671 5670 5670 5668 5667 5666 5664 5663 5661 5658 5656 5654 5651
5701 5699 5698 5697 5695 5694 5692 5690 5688 5687 5686 5685 5683 5682 5680 5679 5678 5676 5675 5675 5674 5673 5672 5671 5671 5671 5670 5670 5670 5669 5669 5668 5667 5666 5665 5664 5662 5661 5659 5658 5656 5654 5652 5649
5691 5690 5689 5688 5687 5686 5684 5682 5681 5680 5679 5678 5676 5675 5674 5673 5672 5670 5669 5669 5668 5667 5666 5666 5666 5666 5666 5666 5666 5665 5665 5664 5663 5663 5662 5660 5659 5658 5656 5655 5653 5651 5649 5647
5682 5680 5679 5679 5678 5677 5676 5674 5673 5672 5671 5670 5669 5668 5667 5666 5665 5664 5664 5663 5662 5661 5661 5661 5661 5661 5661 5661 5661 5661 5661 5660 5660 5659 5658 5657 5656 5655 5653 5652 5650 5649 5647 5645
5671 5671 5670 5669 5668 5667 5667 5666 5665 5664 5663 5663 5662 5661 5660 5659 5659 5658 5657 5657 5656 5656 5656 5656 5656 5656 5656 5657 5657 5657 5657 5656 5656 5655 5654 5653 5653 5652 5650 5649 5647 5646 5645 5643
5661 5660 5660 5660 5659 5658 5658 5657 5656 5656 5655 5655 5654 5654 5653 5652 5652 5651 5651 5651 5651 5651 5651 5651 5651 5651 5652 5652 5652 5652 5652 5652 5652 5651 5651 5650 5649 5648 5647 5646 5644 5643 5642 5640
5650 5649 5649 5649 5649 5649 5648 5648 5648 5647 5647 5647 5646 5646 5646 5645 5645 5644 5644 5644 5645 5645 5646 5646 5646 5647 5647 5647 5648 5648 5648 5648 5647 5647 5647 5646 5645 5644 5644 5643 5641 5640 5639 5638
5638 5638 5639 5639 5639 5639 5639 5639 5639 5639 5639 5639 5638 5638 5638 5638 5638 5638 5638 5638 5639 5640 5640 5641 5641 5641 5642 5642 5643 5643 5643 5643 5643 5643 5643 5642 5642 5641 5640 5640 5639 5637 5636 5635